Regional Weather Roundup
Issued by NWS Charleston, SC

Current Version | Previous Version | Text Only | Print | Product List | Glossary Off
Versions: 1 2 3 4 5 6 7 8 9 10 11 12 13 14 15 16 17 18 19 20 21 22 23 24 25 26 27 28 29 30 31 32 33 34 35 36 37 38 39 40 41 42 43 44 45 46 47 48 49 50
000 ASUS42 KCHS 310511 RWRCHS REGIONAL WEATHER ROUNDUP NATIONAL WEATHER SERVICE CHARLESTON SC 1200 AM EST SAT JAN 31 2015 NOTE: "FAIR" INDICATES FEW OR NO CLOUDS BELOW 12,000 FEET WITH NO SIGNIFICANT WEATHER AND/OR OBSTRUCTIONS TO VISIBILITY. NOT ALL STATIONS ARE QUALITY CONTROLLED BY THE NATIONAL WEATHER SERVICE. USE DATA WITH CAUTION...ESPECIALLY DEWPOINT OBSERVATIONS. SCZ027-030-031-034>040-042>050-310600- ...SOUTHEAST SOUTH CAROLINA... CITY SKY/WX TMP DP RH WIND PRES REMARKS N CHARLESTON CLEAR 42 22 44 N9 30.30S WATERFRONT PRK N/A 45 N/A N/A NW13 N/A MOUNT PLEASANT FAIR 39 23 52 CALM 30.30S PINOPOLIS N/A 46 25 42 N15 30.21R MONCKS CORNER FAIR 45 21 39 N9 30.30S SUMMERVILLE NOT AVBL BEAUFORT MCAS CLEAR 41 26 55 N6 30.30R BEAUFORT ARPT FAIR 43 28 56 N6 30.29S HILTON HEAD IS CLEAR 45 28 53 N7 30.31R WALTERBORO CLEAR 37 21 52 N3 30.31S ALLENDALE FAIR 39 23 52 CALM 30.30S ...SOUTHERN MIDLANDS AND PEE DEE... CITY SKY/WX TMP DP RH WIND PRES REMARKS GEORGETOWN NOT AVBL KINGSTREE NOT AVBL ORANGEBURG CLEAR 35 24 64 CALM 30.30F BARNWELL FAIR 37 23 56 N5 30.31S WCI 34 AIKEN FAIR 36 19 51 CALM 30.33S MANNING FAIR 41 19 42 N7 30.31S COLUMBIA CLEAR 39 17 41 CALM 30.31S SUMTER CLEAR 35 16 45 NE8 30.30S WCI 29 FLORENCE CLEAR 36 14 40 N9 30.32S WCI 29 MYRTLE BEACH CLEAR 39 14 35 N14 30.31S WCI 31 N MYRTLE BEACH CLEAR 39 14 36 N9 30.28S WCI 33 $$ GAZ063-065-086>088-099>101-113>116-118-119-134>141-150-310600- ...SOUTHEAST GEORGIA... CITY SKY/WX TMP DP RH WIND PRES REMARKS SAVANNAH ARPT PTCLDY 39 29 67 N3 30.31R HUNTER AAF PTCLDY 40 29 65 CALM 30.28R FORT STEWART PTCLDY 37 30 74 NW3 30.29R STATESBORO CLEAR 37 29 74 CALM 30.31S SYLVANIA CLEAR 40 29 65 NE6 30.31S WCI 35 CLAXTON FAIR 41 32 70 NW5 30.31S ...CSRA...CENTRAL AND FAR SOUTHEAST GEORGIA... CITY SKY/WX TMP DP RH WIND PRES REMARKS THOMSON CLEAR 32 29 88 CALM 30.36F AUGUSTA-BUSH CLEAR 32 20 61 CALM 30.33R AUGUSTA-DANIEL CLEAR 41 16 36 N5 30.32R SWAINSBORO FAIR 41 19 42 N3 30.32F VIDALIA PTCLDY 43 30 61 N7 30.31S EASTMAN FAIR 38 27 64 CALM 30.35S HAZLEHURST FAIR 42 30 61 N3 30.30S ALMA MOCLDY 43 27 53 N6 30.31R WAYCROSS MOCLDY 45 33 61 N5 30.31S JESUP FAIR 46 32 57 CALM 30.30F BAXLEY FAIR 45 28 53 N3 30.30S BRUNSWICK PTCLDY 43 32 65 CALM 30.30S SAINT SIMONS MOCLDY 45 29 53 N5 30.29S $$ SCZ027-028-034-036>038-045-046-048>050-GAZ119-141-310600- ...LAKE AND SUPPLEMENTAL COASTAL OBSERVATIONS... STATION/POSITION TIME TEMP WIND PRES WAVE SWELL AIR SEA DIR/SP/G HT/PER HT/PER/DIR (UTC) (F) (DEG/KT/KT) (MB) (FT/S) (FT/S/D) UPR LAKE MARION NOT AVBL WINYAH BAY 0345 42 350/ 6 1024.0 LAKE MURRAY 0400 39 330/ 3/ 6 1025.7R ACE BASIN NERRS NOT AVBL FORT PULASKI 0400 47 52 20/ 4/ 5 1026.0R SAPELO ISLAND 0400 42 310/ 2 1025.0S $$ ANZ835-935-AMZ111-154-330-350-352-354-370-450-454-472-310600- ...C-MAN AND BUOY OBSERVATIONS... STATION/POSITION TIME TEMP WIND PRES WAVE SWELL AIR SEA DIR/SP/G HT/PER HT/PER/DIR (UTC) (F) (DEG/KT/KT) (MB) (FT/S) (FT/S/D) BUOY 41004 0450 52 68 360/ 23/ 29 1023.9R 6/ 6 2/10 BUOY 41008 0450 53 53 360/ 12/ 14 1025.6R 2/ 4 FOLLY BEACH CMAN 0500 44 360/ 10/ 13 1026.2R CAPERS NEARSHORE NOT AVBL FRIPP NEARSHORE 0400 50 10/ 14/ 17 1024.8 STATION/POSITION TIME TEMP WIND PRES WAVE SWELL AIR SEA DIR/SP/G HT/PER HT/PER/DIR (UTC) (F) (DEG/KT/KT) (MB) (FT/S) (FT/S/D) 5E ST. MARYS GA 0421 56 N/A 2/ 4 FRYING PAN BUOY 0450 46 62 340/ 25/ 31 1024.6R 7/ 6 BUOY 41025 0450 40 65 330/ 27/ 35 1021.3R 8/ 5 2/ 30/11 CAPE LOOKOUT NC 0400 39 330/ 22/ 27 1023.2R BUOY 41002 0450 58 71 330/ 23/ 29 1019.1R 13/ 9 BUOY 41010 0420 64 73 350/ 19/ 25 1021.7R ST AUGUSTINE FL 0500 52 330/ 10/ 12 1025.3R $$

USA.gov is the U.S. government's official web portal to all federal, state and local government web resources and services.